Location: Newark
(44.3248°N, 23.7839°E)
Time: 23:52:15
(UTC+00:00)

PCSat - Pass Details

Date: 21 April 2024
Orbit: 783 x 792 km, 67.1° (Epoch: 21 May)

Event Time Altitude Azimuth Distance (km) Brightness Sun altitude
Rises 17:55:51 0° 216° (SW) 3,265 12.9 -7.3°
Reaches altitude 10° 17:58:16 10° 218° (SW) 2,342 12.2 -7.7°
Maximum altitude 18:03:38 72° 303° (WNW) 830 9.9 -8.5°
Drops below altitude 10° 18:09:03 10° 28° (NNE) 2,363 12.0 -9.4°
Sets 18:11:29 0° 31° (NNE) 3,297 12.8 -9.8°
